Вернуться в каталог

STARLINK-3157

АктивенСвязьVLEO
NORAD 49413·PAYLOAD·🇺🇸 United States

Запущен Nov 13, 2021 с Cape Canaveral Space Force Station

Loading…

Ближайшие Пролёты (ближайшие 24 часа)

TLE

СвежийSource: CelesTrak SupGP

Эпоха: Sep 14, 2026, 20:47 UTC

1 49413C 21104F   26257.86645833  .00023867  00000+0  72429-3 0  2573
2 49413  53.1583  78.1660 0001243  83.0064  72.8873 15.33534260    15

Отслеживайте STARLINK-3157 в реальном времени с AllMySat

Download on the App Store